User: anonymous   Login
Location: Unspecified
(0.0000°N, 0.0000°E)
Time: 00:25:13
(UTC+01:00)
Language:

PAS 1R - Orbit

View from above orbital plane
View from above orbital plane
View from above satellite
View from above satellite

Ground track
Ground track

The orbit data is extracted from the following two-line orbital elements,

1 26608U 00072A   17346.68382622 -.00000141  00000-0  00000+0 0  9995
2 26608   0.6744  94.0613 0000209 107.5972 283.2103  1.00271658 62489
Epoch (UTC): 12 December 2017 16:24:42
Eccentricity: 0.0000209
inclination: 0.6744°
perigee height: 35785 km
apogee height: 35787 km
right ascension of ascending node: 94.0613°
argument of perigee: 107.5972°
revolutions per day: 1.00271658
mean anomaly at epoch: 283.2103°
orbit number at epoch: 6248

The dashed part of the orbit path shows where the satellite is in the earth's shadow,  

DLR